Location: Gars am Kamp
(48.5989°N, 15.6622°E)
Time: 19:27:05
(UTC+01:00)

ISS - Visible Passes

Search period start: 18 January 2020 00:00
Search period end: 28 January 2020 00:00
Orbit: 415 x 421 km, 51.6° (Epoch: 19 January)

Date Brightness Start Highest point End Pass type
(mag) Time Alt. Az. Time Alt. Az. Time Alt. Az.
20 Jan -1.5 18:25:39 10° S 18:26:47 14° SSE 18:26:47 14° SSE visible
21 Jan -1.4 19:12:47 10° SW 19:14:00 20° SW 19:14:00 20° SW visible
22 Jan -2.8 18:25:01 10° SSW 18:28:05 33° SE 18:28:10 33° SE visible
23 Jan -2.1 17:37:30 10° SSW 17:40:11 22° SE 17:42:16 13° E visible
23 Jan -2.0 19:13:17 10° WSW 19:15:12 31° WSW 19:15:12 31° WSW visible
24 Jan -3.8 18:25:16 10° WSW 18:28:37 70° SSE 18:29:14 53° E visible
25 Jan -3.2 17:37:21 10° SW 17:40:36 48° SSE 17:43:13 15° ENE visible
25 Jan -2.0 19:14:03 10° W 19:16:09 33° WNW 19:16:09 33° WNW visible
26 Jan -3.7 18:25:53 10° W 18:29:15 68° NNW 18:30:04 46° NE visible
27 Jan -3.8 17:37:46 10° WSW 17:41:09 88° NNW 17:43:58 14° ENE visible
27 Jan -2.0 19:14:50 10° WNW 19:16:54 31° WNW 19:16:54 31° WNW visible
